Location: Jetmore Oil Field
(38.1181°N, 99.9337°W)
Time: 08:34:04
(UTC+00:00)

Cosmos 1339 Rocket - Pass Details

Date: 17 February 2020
Orbit: 943 x 1005 km, 82.9° (Epoch: 03 April)

Event Time Altitude Azimuth Distance (km) Brightness Sun altitude
Exits shadow 11:39:46 15° 207° (SSW) 2,293 6.2 -21.9°
Maximum altitude 11:44:38 53° 280° (W) 1,152 4.5 -21.0°
Drops below altitude 10° 11:50:35 10° 357° (N) 2,677 6.8 -19.8°
Sets 11:53:10 0° 2° (N) 3,632 7.5 -19.3°
